sat.trackr.live / text

‹ back to catalog

STARLINK-2082

NORAD 47367 · 2021-005U

PAYLOAD ACTIVE UNKNOWN

§ Identity

Operator
Country
US
Launch date
2021-01-20
Launch site
AFETR
Launch vehicle
Mass (kg)
RCS (m²)

Purposes: comms

External: N2YO · Heavens-Above · Gunter

§ Orbital elements

Epoch: 2026-09-19T11:43:27.708096Z

Period
94.01 min
Inclination
53.1601°
Eccentricity
0.0001338
Mean motion
15.31699862 rev/d
Perigee alt
469.8 km
Apogee alt
471.7 km
Semi-major
6,848.9 km
B*
4.5338e-5
RAAN
240.7653°
Arg perigee
92.1055°
Mean anomaly
268.0099°
Rev number
31,272

§ Raw data

STARLINK-20821 47367U 21005U   26262.48851514  .00001042  00000+0  45338-4 0  99922 47367  53.1601 240.7653 0001338  92.1055 268.0099 15.31699862312728

JSON: /api/v1/satellites/47367 · /tle

For live sub-satellite position, see the globe view (requires WebGL).

§ Visibility from observer

Set your observer location to see the next 7 days of passes ≥ 10°. The values pass through the URL so the page stays shareable.

No JS? Fill the form by hand. The geolocation button needs JavaScript.